COSMOS 1016

Satellite information

Favourite Embed

Satellite Type and Status

PAYLOADIN ORBIT

Key statistics

Satellite COSMOS 1016 at a glance.

Uptime

17198

Days in orbit

Revolutions

≈ 12.5

Per day

Orbit

LEO

Low Earth Orbit

Inclination

74.0

Latest

Satellite identification and parameters

Extended collection of information and parameters for COSMOS 1016.

Object identification

Identified? True

Debris? False

Object name: COSMOS 1016

International designator: 1978-056D

Object number (NORAD): 10933

Object ID (CCSDS): 10933

Country: COMMONWEALTH OF INDEPENDENT STATES (CIS)

Current information (Y/N): Y

RCS size: MEDIUM

Orbital parameters

Period: 115.635 minutes

Inclination: 74.0263 deg

SMA: 7862.364 km

Apoapsis: 1497.351 km

Periapsis: 1471.107 km

RAAN: 262.8254 deg

Eccentricy: 0.001669

Argument of periapsis: 141.4095 deg

Mean anomaly: 332.5732 deg

Mean motion: 12.45297271 rev/day

Mean motion (dot): -0.00000007 rev/day2

B* drag term: 0.000056658 1/REarth

Two-line elements (TLE)

Creation date: July 8, 2025, 2:27 a.m.

Reference frame: TEME

Reference center: EARTH

Epoch: July 7, 2025, 3:49 p.m. UTC

TLE line 0: 0 COSMOS 1016

TLE line 1: 1 10933U 78056D 25188.65934030 -.00000007 00000-0 56658-4 0 9998

TLE line 2: 2 10933 74.0263 262.8254 0016690 141.4095 332.5732 12.45297271140331

Live tracking on map

Real-time ground track for satellite COSMOS 1016.

In-orbit conjunctions

There are no conjunctions computed for COSMOS 1016, at the moment. Check back to stay up to date, as we update our databases every day.

Go to all conjunctions

Associated space launch

Military communications satellites

COSMOS 1016 was lifted into orbit during the mission ‘Kosmos-3M | Strela-1M 145-152’, on board a Kosmos-3M space rocket.

The launch took place on June 7, 1978, 10 p.m. from 132/1 (132L).

For more information about the launch, click the button.

Launch to space Kosmos-3M | Strela-1M 145-152
Kosmos-3M | Strela-1M 145-152

Agency: N/A

Status: Launch Successful

Launch date: June 7, 1978, 10 p.m. UTC

Rocket: Kosmos-3M

Launch pad: 132/1 (132L)

Location: Plesetsk Cosmodrome, Russian Federation

...

Latest news about this satellite

There are no fresh news available about this satellite. Check back as we update our databases every day.


Newsletter sign-up

Weekly statistics, charts and insights to help you stay on top of the space industry.